Time,TemperatureF,DewpointF,PressureIn,WindDirection,WindDirectionDegrees,WindSpeedMPH,WindSpeedGustMPH,Humidity,HourlyPrecipIn,Conditions,Clouds,dailyrainin,SoftwareType,DateUTC
2013-04-10 00:08:00,58.5,55.5,29.83,South,180,0.0,-999.0,90,-99.99,,,0.00,Acu-Link.com,2013-04-10 04:08:00,
2013-04-10 00:23:00,58.5,55.5,29.83,South,180,0.0,-999.0,90,-99.99,,,0.00,Acu-Link.com,2013-04-10 04:23:00,
2013-04-10 00:38:00,58.8,57.4,29.82,SSE,157,0.0,-999.0,95,-99.99,,,0.00,Acu-Link.com,2013-04-10 04:38:00,
2013-04-10 00:53:00,59.0,58.4,29.81,NW,315,0.0,-999.0,98,-99.99,,,0.00,Acu-Link.com,2013-04-10 04:53:00,
2013-04-10 01:08:00,58.6,58.1,29.80,ESE,112,0.0,-999.0,98,-99.99,,,0.00,Acu-Link.com,2013-04-10 05:08:00,
2013-04-10 01:24:00,58.1,57.5,29.80,SW,225,0.0,-999.0,98,-99.99,,,0.00,Acu-Link.com,2013-04-10 05:24:00,
2013-04-10 01:39:00,57.9,57.4,29.80,South,180,0.0,-999.0,98,-99.99,,,0.00,Acu-Link.com,2013-04-10 05:39:00,
2013-04-10 01:54:00,57.7,57.2,29.78,SW,225,0.0,-999.0,98,-99.99,,,0.00,Acu-Link.com,2013-04-10 05:54:00,
2013-04-10 02:09:00,57.2,56.6,29.77,SW,225,0.0,-999.0,98,-99.99,,,0.00,Acu-Link.com,2013-04-10 06:09:00,
2013-04-10 02:24:00,56.8,56.3,29.76,SW,225,0.0,-999.0,98,-99.99,,,0.00,Acu-Link.com,2013-04-10 06:24:00,
2013-04-10 02:40:00,56.7,56.1,29.75,SSE,157,0.0,-999.0,98,-99.99,,,0.00,Acu-Link.com,2013-04-10 06:40:00,
2013-04-10 02:55:00,56.5,55.9,29.76,WSW,247,0.0,-999.0,98,-99.99,,,0.00,Acu-Link.com,2013-04-10 06:55:00,
2013-04-10 03:10:00,59.4,56.4,29.76,WSW,247,7.8,-999.0,90,-99.99,,,0.00,Acu-Link.com,2013-04-10 07:10:00,
2013-04-10 03:25:00,62.8,53.2,29.81,South,180,2.2,-999.0,71,-99.99,,,0.00,Acu-Link.com,2013-04-10 07:25:00,
2013-04-10 03:40:00,63.0,52.6,29.80,ESE,112,3.1,-999.0,69,-99.99,,,0.00,Acu-Link.com,2013-04-10 07:40:00,
2013-04-10 03:56:00,61.0,55.4,29.81,ESE,112,2.7,-999.0,82,-99.99,,,0.00,Acu-Link.com,2013-04-10 07:56:00,
2013-04-10 04:11:00,59.7,57.7,29.82,WSW,247,2.2,-999.0,93,-99.99,,,0.00,Acu-Link.com,2013-04-10 08:11:00,
2013-04-10 04:26:00,58.8,58.3,29.82,West,270,1.6,-999.0,98,-99.99,,,0.00,Acu-Link.com,2013-04-10 08:26:00,
2013-04-10 04:41:00,57.2,56.6,29.80,West,270,0.0,-999.0,98,-99.99,,,0.05,Acu-Link.com,2013-04-10 08:41:00,
2013-04-10 04:57:00,56.1,55.6,29.82,ESE,112,0.0,-999.0,98,-99.99,,,0.05,Acu-Link.com,2013-04-10 08:57:00,
2013-04-10 05:12:00,55.2,54.7,29.83,ESE,112,0.0,-999.0,98,-99.99,,,0.05,Acu-Link.com,2013-04-10 09:12:00,
2013-04-10 05:27:00,54.7,54.1,29.83,SSW,202,0.0,-999.0,98,-99.99,,,0.05,Acu-Link.com,2013-04-10 09:27:00,
2013-04-10 05:42:00,54.3,53.8,29.83,WNW,292,0.0,-999.0,98,-99.99,,,0.05,Acu-Link.com,2013-04-10 09:42:00,
2013-04-10 05:57:00,54.0,53.4,29.85,SW,225,0.0,-999.0,98,-99.99,,,0.05,Acu-Link.com,2013-04-10 09:57:00,
2013-04-10 06:12:00,53.4,52.9,29.84,WSW,247,0.0,-999.0,98,-99.99,,,0.05,Acu-Link.com,2013-04-10 10:12:00,
2013-04-10 06:27:00,52.9,52.3,29.85,West,270,0.0,-999.0,98,-99.99,,,0.05,Acu-Link.com,2013-04-10 10:27:00,
2013-04-10 06:43:00,52.3,51.8,29.85,SW,225,0.0,-999.0,98,-99.99,,,0.05,Acu-Link.com,2013-04-10 10:43:00,
2013-04-10 06:58:00,52.3,51.8,29.86,SSW,202,0.0,-999.0,98,-99.99,,,0.05,Acu-Link.com,2013-04-10 10:58:00,
2013-04-10 07:13:00,52.3,51.8,29.86,South,180,0.0,-999.0,98,-99.99,,,0.05,Acu-Link.com,2013-04-10 11:13:00,
2013-04-10 07:28:00,53.4,52.9,29.87,SSE,157,0.0,-999.0,98,-99.99,,,0.05,Acu-Link.com,2013-04-10 11:28:00,
2013-04-10 07:43:00,55.2,54.7,29.87,WSW,247,0.0,-999.0,98,-99.99,,,0.05,Acu-Link.com,2013-04-10 11:43:00,
2013-04-10 07:59:00,56.8,56.3,29.88,SSW,202,0.0,-999.0,98,-99.99,,,0.05,Acu-Link.com,2013-04-10 11:59:00,
2013-04-10 08:14:00,57.4,56.8,29.88,SSW,202,0.0,-999.0,98,-99.99,,,0.05,Acu-Link.com,2013-04-10 12:14:00,
2013-04-10 08:29:00,57.7,57.2,29.88,SE,135,0.0,-999.0,98,-99.99,,,0.05,Acu-Link.com,2013-04-10 12:29:00,
2013-04-10 08:44:00,58.5,57.9,29.88,North,0,0.0,-999.0,98,-99.99,,,0.05,Acu-Link.com,2013-04-10 12:44:00,
2013-04-10 09:00:00,60.3,59.7,29.88,SSW,202,0.0,-999.0,98,-99.99,,,0.05,Acu-Link.com,2013-04-10 13:00:00,
2013-04-10 09:15:00,60.1,59.5,29.88,NW,315,0.0,-999.0,98,-99.99,,,0.05,Acu-Link.com,2013-04-10 13:15:00,
2013-04-10 09:30:00,61.5,60.9,29.88,NNW,337,0.0,-999.0,98,-99.99,,,0.05,Acu-Link.com,2013-04-10 13:30:00,
2013-04-10 09:45:00,62.4,61.8,29.87,NW,315,0.0,-999.0,98,-99.99,,,0.05,Acu-Link.com,2013-04-10 13:45:00,
2013-04-10 10:00:00,63.0,62.4,29.88,South,180,0.0,-999.0,98,-99.99,,,0.05,Acu-Link.com,2013-04-10 14:00:00,
2013-04-10 10:16:00,65.8,61.2,29.88,South,180,0.0,-999.0,85,-99.99,,,0.05,Acu-Link.com,2013-04-10 14:16:00,
2013-04-10 10:46:00,66.4,61.4,29.87,NW,315,1.6,-999.0,84,-99.99,,,0.05,Acu-Link.com,2013-04-10 14:46:00,
2013-04-10 11:01:00,67.3,60.5,29.87,NNE,22,0.0,-999.0,79,-99.99,,,0.05,Acu-Link.com,2013-04-10 15:01:00,
2013-04-10 11:16:00,69.1,60.8,29.86,ESE,112,0.0,-999.0,75,-99.99,,,0.05,Acu-Link.com,2013-04-10 15:16:00,
2013-04-10 11:32:00,70.0,60.9,29.86,SE,135,1.1,-999.0,73,-99.99,,,0.05,Acu-Link.com,2013-04-10 15:32:00,
2013-04-10 11:47:00,69.8,61.1,29.87,SE,135,1.6,-999.0,74,-99.99,,,0.05,Acu-Link.com,2013-04-10 15:47:00,
2013-04-10 12:02:00,69.6,61.0,29.87,SE,135,1.1,-999.0,74,-99.99,,,0.05,Acu-Link.com,2013-04-10 16:02:00,
2013-04-10 12:17:00,70.9,61.4,29.87,SE,135,2.7,-999.0,72,-99.99,,,0.05,Acu-Link.com,2013-04-10 16:17:00,
2013-04-10 12:32:00,72.3,62.4,29.87,SE,135,2.7,-999.0,71,-99.99,,,0.05,Acu-Link.com,2013-04-10 16:32:00,
2013-04-10 12:48:00,72.9,63.7,29.86,ESE,112,4.3,-999.0,73,-99.99,,,0.05,Acu-Link.com,2013-04-10 16:48:00,
2013-04-10 13:03:00,74.5,64.4,29.86,SE,135,0.0,-999.0,71,-99.99,,,0.05,Acu-Link.com,2013-04-10 17:03:00,
2013-04-10 13:33:00,74.1,64.5,29.85,SSW,202,0.0,-999.0,72,-99.99,,,0.05,Acu-Link.com,2013-04-10 17:33:00,
2013-04-10 13:48:00,75.2,64.3,29.85,West,270,2.2,-999.0,69,-99.99,,,0.05,Acu-Link.com,2013-04-10 17:48:00,
2013-04-10 14:04:00,73.9,63.9,29.84,West,270,3.1,-999.0,71,-99.99,,,0.05,Acu-Link.com,2013-04-10 18:04:00,
2013-04-10 14:19:00,75.9,65.0,29.84,SE,135,1.6,-999.0,69,-99.99,,,0.05,Acu-Link.com,2013-04-10 18:19:00,
2013-04-10 14:34:00,76.3,64.5,29.83,ESE,112,2.2,-999.0,67,-99.99,,,0.05,Acu-Link.com,2013-04-10 18:34:00,
2013-04-10 14:49:00,76.1,64.8,29.83,WSW,247,3.8,-999.0,68,-99.99,,,0.05,Acu-Link.com,2013-04-10 18:49:00,
2013-04-10 15:04:00,75.6,64.7,29.82,East,90,1.6,-999.0,69,-99.99,,,0.05,Acu-Link.com,2013-04-10 19:04:00,
2013-04-10 15:20:00,74.8,64.0,29.82,SE,135,0.0,-999.0,69,-99.99,,,0.05,Acu-Link.com,2013-04-10 19:20:00,
2013-04-10 15:35:00,73.8,64.2,29.81,SE,135,2.7,-999.0,72,-99.99,,,0.05,Acu-Link.com,2013-04-10 19:35:00,
2013-04-10 15:50:00,73.9,64.7,29.80,SSW,202,0.0,-999.0,73,-99.99,,,0.05,Acu-Link.com,2013-04-10 19:50:00,
2013-04-10 16:05:00,75.2,64.3,29.79,SE,135,1.6,-999.0,69,-99.99,,,0.05,Acu-Link.com,2013-04-10 20:05:00,
2013-04-10 16:20:00,76.1,64.3,29.79,SSE,157,0.0,-999.0,67,-99.99,,,0.05,Acu-Link.com,2013-04-10 20:20:00,
2013-04-10 16:36:00,76.1,63.0,29.79,SW,225,0.0,-999.0,64,-99.99,,,0.05,Acu-Link.com,2013-04-10 20:36:00,
2013-04-10 16:51:00,78.1,63.5,29.78,South,180,1.1,-999.0,61,-99.99,,,0.05,Acu-Link.com,2013-04-10 20:51:00,
2013-04-10 17:06:00,77.2,63.6,29.77,SSW,202,0.0,-999.0,63,-99.99,,,0.05,Acu-Link.com,2013-04-10 21:06:00,
2013-04-10 17:21:00,75.4,63.2,29.76,SSW,202,0.0,-999.0,66,-99.99,,,0.05,Acu-Link.com,2013-04-10 21:21:00,
2013-04-10 17:37:00,71.6,60.9,29.76,SW,225,0.0,-999.0,69,-99.99,,,0.05,Acu-Link.com,2013-04-10 21:37:00,
2013-04-10 17:52:00,68.9,60.3,29.76,West,270,3.1,-999.0,74,-99.99,,,0.05,Acu-Link.com,2013-04-10 21:52:00,
2013-04-10 18:07:00,68.5,60.7,29.77,ESE,112,0.0,-999.0,76,-99.99,,,0.05,Acu-Link.com,2013-04-10 22:07:00,
2013-04-10 18:22:00,66.7,60.7,29.77,NNE,22,0.0,-999.0,81,-99.99,,,0.05,Acu-Link.com,2013-04-10 22:22:00,
2013-04-10 18:37:00,65.1,61.1,29.76,South,180,0.0,-999.0,87,-99.99,,,0.05,Acu-Link.com,2013-04-10 22:37:00,
2013-04-10 18:53:00,63.9,62.7,29.89,SE,135,0.0,-999.0,96,-99.99,,,0.05,Acu-Link.com,2013-04-10 22:53:00,
2013-04-10 19:08:00,58.8,58.3,29.84,SSE,157,0.0,-999.0,98,-99.99,,,0.16,Acu-Link.com,2013-04-10 23:08:00,
2013-04-10 19:23:00,58.5,57.9,29.83,SSE,157,0.0,-999.0,98,-99.99,,,0.39,Acu-Link.com,2013-04-10 23:23:00,
2013-04-10 19:38:00,58.1,57.5,29.82,WSW,247,0.0,-999.0,98,-99.99,,,0.41,Acu-Link.com,2013-04-10 23:38:00,
2013-04-10 19:53:00,57.4,56.8,29.76,West,270,0.0,-999.0,98,-99.99,,,0.47,Acu-Link.com,2013-04-10 23:53:00,
2013-04-10 20:08:00,57.6,57.0,29.74,South,180,0.0,-999.0,98,-99.99,,,0.48,Acu-Link.com,2013-04-11 00:08:00,
2013-04-10 20:24:00,57.4,56.8,29.74,SSW,202,0.0,-999.0,98,-99.99,,,0.48,Acu-Link.com,2013-04-11 00:24:00,
2013-04-10 20:39:00,57.4,56.8,29.75,SW,225,0.0,-999.0,98,-99.99,,,0.48,Acu-Link.com,2013-04-11 00:39:00,
2013-04-10 20:54:00,57.7,57.2,29.77,WNW,292,0.0,-999.0,98,-99.99,,,0.48,Acu-Link.com,2013-04-11 00:54:00,
2013-04-10 21:09:00,57.7,57.2,29.80,SSW,202,0.0,-999.0,98,-99.99,,,0.48,Acu-Link.com,2013-04-11 01:09:00,
2013-04-10 21:24:00,57.7,57.2,29.77,West,270,0.0,-999.0,98,-99.99,,,0.48,Acu-Link.com,2013-04-11 01:24:00,
2013-04-10 21:40:00,58.1,57.5,29.76,SSE,157,0.0,-999.0,98,-99.99,,,0.48,Acu-Link.com,2013-04-11 01:40:00,
2013-04-10 21:55:00,58.3,57.7,29.77,West,270,0.0,-999.0,98,-99.99,,,0.49,Acu-Link.com,2013-04-11 01:55:00,
2013-04-10 22:10:00,58.5,57.9,29.81,West,270,0.0,-999.0,98,-99.99,,,0.49,Acu-Link.com,2013-04-11 02:10:00,
2013-04-10 22:25:00,58.5,57.9,29.85,WNW,292,0.0,-999.0,98,-99.99,,,0.69,Acu-Link.com,2013-04-11 02:25:00,
2013-04-10 22:40:00,58.3,57.7,29.81,South,180,0.0,-999.0,98,-99.99,,,0.75,Acu-Link.com,2013-04-11 02:40:00,
2013-04-10 22:56:00,58.3,57.7,29.82,SSW,202,0.0,-999.0,98,-99.99,,,0.76,Acu-Link.com,2013-04-11 02:56:00,
2013-04-10 23:26:00,58.3,57.7,29.81,South,180,0.0,-999.0,98,-99.99,,,0.76,Acu-Link.com,2013-04-11 03:26:00,
2013-04-10 23:41:00,58.3,57.7,29.79,West,270,0.0,-999.0,98,-99.99,,,0.76,Acu-Link.com,2013-04-11 03:41:00,
2013-04-10 23:57:00,58.1,57.5,29.79,SSE,157,0.0,-999.0,98,-99.99,,,0.77,Acu-Link.com,2013-04-11 03:57:00,